Location: Crescent
(42.8242°N, 73.7329°W)
Time: 20:25:00
(UTC+00:00)

SR - Pass Details

Date: 19 February 2026
Orbit: 573 x 848 km, 66.7° (Epoch: 6 March)

Event Time Altitude Azimuth Distance (km) Brightness Sun altitude
Rises 18:50:48 0° 318° (NW) 3,126 ? 31.3°
Reaches altitude 10° 18:53:22 10° 306° (NW) 2,249 ? 31.0°
Maximum altitude 18:57:42 28° 249° (WSW) 1,426 ? 30.6°
Drops below altitude 10° 19:02:16 10° 192° (SSW) 2,376 ? 30.2°
Sets 19:05:04 0° 181° (S) 3,337 ? 29.9°
